Ketchikan, AK

11:19 PM AKST on December 15, 2018 (GMT -0900)
Ketchikan International

Weather History for PAKT - September, 2018

Change the Weather History Date:

Tuesday, September 25, 2018

  Actual Average Record
Temperature  
Mean Temperature 53 °F -  
Max Temperature 55 °F 58 °F 69 °F (1954)
Min Temperature 51 °F 44 °F 31 °F (1972)
Degree Days  
Heating Degree Days 12    
Growing Degree Days 3 (Base 50)    
Moisture  
Dew Point 53 °F    
Average Humidity 94    
Maximum Humidity 100    
Minimum Humidity 92    
Precipitation  
Precipitation 0.02 in - - ()
Sea Level Pressure  
Sea Level Pressure 30.35 in    
Wind  
Wind Speed 4 mph (SE)    
Max Wind Speed 9 mph    
Max Gust Speed -    
Visibility 6 miles    
Events Rain    
Averages and records for this station are not official NWS values.
T = Trace of Precipitation, MM = Missing Value Source: NWS Daily Summary

Daily Weather History Graph

Daily Weather History Graph

Search for Another Location

Airport or City:

Astronomy

Sep. 25, 2018 Rise Set
Actual Time 6:38 AM AKDT 6:37 PM AKDT
Civil Twilight 6:01 AM AKDT 7:13 PM AKDT
Nautical Twilight 5:18 AM AKDT 7:56 PM AKDT
Astronomical Twilight 4:33 AM AKDT 8:41 PM AKDT
Moon 7:22 PM AKDT (9/25) 7:01 AM AKDT (9/25)
Length of Visible Light 13h 11m
Length of Day
11h 59m
Waxing Gibbous, 99% of the Moon is Illuminated
Sep 25
Waxing Gibbous
Oct 2
Last Quarter
Oct 8
New
Oct 16
First Quarter
Oct 24
Full

Hourly Weather History & Observations

Time (AKDT) Temp. Dew Point Humidity Pressure Visibility Wind Dir Wind Speed Gust Speed Precip Events Conditions
12:07 AM 51.1 °F 50.0 °F 96% 30.38 in 2.0 mi SW 4.6 mph - N/A   Partly Cloudy
12:15 AM 51.1 °F 50.0 °F 96% 30.38 in 10.0 mi Calm Calm - N/A   Scattered Clouds
12:53 AM 51.1 °F 48.9 °F 92% 30.38 in 10.0 mi Calm Calm - N/A   Mostly Cloudy
1:53 AM 53.1 °F 51.1 °F 93% 30.37 in 9.0 mi SE 4.6 mph - N/A   Overcast
2:53 AM 53.1 °F 51.1 °F 93% 30.37 in 9.0 mi SE 4.6 mph - N/A   Overcast
3:53 AM 53.1 °F 52.0 °F 96% 30.38 in 10.0 mi South 4.6 mph - N/A   Overcast
4:27 AM 53.1 °F 51.1 °F 93% 30.38 in 10.0 mi South 3.5 mph - N/A   Overcast
4:53 AM 52.0 °F 51.1 °F 97% 30.39 in 9.0 mi SSE 3.5 mph - N/A   Overcast
5:02 AM 53.1 °F 52.0 °F 96% 30.38 in 8.0 mi SE 4.6 mph - N/A   Overcast
5:53 AM 53.1 °F 52.0 °F 96% 30.39 in 6.0 mi SE 4.6 mph - N/A   Overcast
6:01 AM 53.1 °F 52.0 °F 96% 30.38 in 7.0 mi ESE 5.8 mph - N/A   Overcast
6:08 AM 53.6 °F 51.8 °F 94% 30.38 in 8.0 mi ESE 6.9 mph - N/A   Overcast
6:53 AM 53.6 °F 51.8 °F 94% 30.38 in 8.0 mi South 5.8 mph - N/A   Overcast
7:53 AM 53.6 °F 51.8 °F 94% 30.38 in 8.0 mi SSE 4.6 mph - N/A   Overcast
8:53 AM 53.6 °F 51.8 °F 94% 30.38 in 7.0 mi SSE 6.9 mph - N/A   Overcast
9:53 AM 53.6 °F 51.8 °F 94% 30.38 in 6.0 mi SE 8.1 mph - N/A   Overcast
10:53 AM 55.4 °F 53.6 °F 94% 30.39 in 5.0 mi SE 8.1 mph - N/A Rain Light Rain
11:53 AM 55.4 °F 53.6 °F 94% 30.38 in 3.0 mi ESE 9.2 mph - N/A Rain Light Rain
12:53 PM 55.4 °F 53.6 °F 94% 30.37 in 3.0 mi SE 8.1 mph - N/A Rain Light Rain
1:53 PM 55.4 °F 53.6 °F 94% 30.37 in 4.0 mi SE 8.1 mph - N/A Rain Light Rain
2:53 PM 55.4 °F 53.6 °F 94% 30.35 in 8.0 mi SE 8.1 mph - N/A   Overcast
3:53 PM 55.4 °F 53.6 °F 94% 30.35 in 6.0 mi SE 6.9 mph - N/A   Mostly Cloudy
4:53 PM 55.4 °F 55.4 °F 100% 30.34 in 4.0 mi SE 5.8 mph - N/A Rain Light Rain
5:51 PM 55.4 °F 53.6 °F 94% 30.33 in 1.8 mi SE 5.8 mph - 0.01 in Rain Light Rain
5:57 PM 55.4 °F 53.6 °F 94% 30.32 in 3.0 mi SE 4.6 mph - N/A Rain Light Rain
6:53 PM 55.4 °F 53.6 °F 94% 30.32 in 3.0 mi Calm Calm - N/A Rain Light Rain
6:55 PM 55.0 °F 53.1 °F 93% 30.32 in 2.5 mi Calm Calm - 0.00 in Rain Light Rain
7:02 PM 55.4 °F 53.6 °F 94% 30.32 in 3.0 mi Calm Calm - N/A Rain Light Rain
7:53 PM 55.4 °F 53.6 °F 94% 30.32 in 8.0 mi South 3.5 mph - N/A Rain Light Rain
8:53 PM 55.4 °F 53.6 °F 94% 30.32 in 10.0 mi South 3.5 mph - N/A Rain Light Rain
9:53 PM 55.0 °F 53.1 °F 93% 30.32 in 7.0 mi SSE 3.5 mph - 0.01 in Rain Light Rain
10:00 PM 55.0 °F 53.1 °F 93% 30.31 in 6.0 mi SE 3.5 mph - 0.00 in Rain Light Rain
10:08 PM 55.0 °F 53.1 °F 93% 30.32 in 6.0 mi SE 4.6 mph - 0.00 in Rain Light Rain
10:19 PM 55.0 °F 53.1 °F 93% 30.31 in 6.0 mi SSE 4.6 mph - 0.01 in Rain Light Rain
10:40 PM 55.0 °F 53.1 °F 93% 30.31 in 7.0 mi SE 4.6 mph - 0.01 in Rain Light Rain
10:53 PM 55.0 °F 53.1 °F 93% 30.31 in 7.0 mi SSE 4.6 mph - 0.01 in   Overcast
11:29 PM 55.0 °F 53.1 °F 93% 30.32 in 7.0 mi South 3.5 mph - N/A   Overcast
11:53 PM 55.0 °F 53.1 °F 93% 30.32 in 8.0 mi SSE 4.6 mph - N/A   Overcast